Regional Weather Roundup
Issued by NWS

Home | Current Version | Previous Version | Text Only | Print | Product List | Glossary On
Versions: 1 2 3 4 5 6 7 8 9 10 11 12 13 14 15 16 17 18 19 20 21 22 23 24 25 26 27 28 29 30 31 32 33 34 35 36 37 38 39 40 41 42 43 44 45 46 47 48 49 50
000
ASUS44 KFWD 180903
RWRTX
NORTH TEXAS HOURLY WEATHER ROUNDUP
NATIONAL WEATHER SERVICE FORT WORTH TX
400 AM CDT FRI APR 18 2014

NOTE: "FAIR" INDICATES FEW OR NO CLOUDS BELOW 12,000 FEET WITH NO
SIGNIFICANT WEATHER AND/OR OBSTRUCTIONS TO VISIBILITY.

TXZ118-119-181000-
DALLAS/FORT WORTH METROPLEX

CITY           SKY/WX    TMP DP  RH WIND       PRES   REMARKS
DFW AIRPORT    CLOUDY    56  53  90 N6        30.18S FOG
DALLAS LOVE    CLOUDY    58  55  90 N5        30.18S FOG
FTW MEACHAM    CLOUDY    56  54  93 CALM      30.18S FOG
DAL-EXECUTIVE  CLOUDY    56  52  86 CALM      30.17S
FTW-ALLIANCE   PTCLDY    52  52 100 CALM      30.18S FOG
FTW-NAS-JRB    LGT RAIN  59  52  77 W6        30.23S
FTW-SPINKS     CLOUDY    54  53  95 N3        30.20S FOG
ARLINGTON      CLOUDY    56  53  90 CALM      30.18S
GRAND PRAIRIE  MOCLDY    55  52  88 CALM      30.21S
ADDISON        CLOUDY    57  56  94 CALM      30.20S
MESQUITE       CLOUDY    56  54  92 CALM      30.19R
LANCASTER      CLOUDY    55  51  85 W3        30.19S
$$

TXZ091>094-102>105-117-120-121-131>134-181000-
NORTH CENTRAL TEXAS

CITY           SKY/WX    TMP DP  RH WIND       PRES   REMARKS
SHRMAN/DENISON PTCLDY    48  45  88 CALM      30.20F
GAINESVILLE    CLOUDY    54  52  92 CALM      30.22S
BOWIE          CLOUDY    55  54  97 CALM      30.20S FOG
BRIDGEPORT     CLOUDY    55  55 100 SW3       30.21F FOG
DECATUR        MOCLDY    53  53  97 E3        30.20S
DENTON         CLOUDY    55  54  96 N3        30.19S FOG
MCKINNEY       MOCLDY    53  51  93 CALM      30.19S
GREENVILLE     CLEAR     52  50  93 CALM      30.19S
ROCKWALL       MOCLDY    55  53  93 CALM      30.18R
TERRELL        CLOUDY    56  54  93 CALM      30.18S
WAXAHACHIE     CLOUDY    56  50  81 N5        30.19S
CLEBURNE       MOCLDY    55  55 100 NE5       30.20S FOG
GRANBURY       CLOUDY    57  55  94 NW3       30.20S FOG
$$

TXZ083>090-098>101-113>116-127>130-139>142-154-155-181000-
WESTERN NORTH TEXAS

CITY           SKY/WX    TMP DP  RH WIND       PRES   REMARKS
WICHITA FALLS  CLOUDY    54  51  90 NE5       30.21F
WF-KICKAPOO    CLOUDY    55  52  88 N5        30.23S
VERNON         CLOUDY    52  49  89 N3        30.23S
ABILENE        CLOUDY    52  49  89 NW7       30.22S FOG
ABILENE-DYESS  CLOUDY    52  50  93 N7        30.21S
BRECKENRIDGE   CLOUDY    58  55  88 SE5       30.20R
MINERAL WELLS  CLOUDY    55  54  96 NW3       30.19R FOG
STEPHENVILLE   CLOUDY    55  53  92 CALM      30.21S
COMANCHE       CLOUDY    56  55  97 CALM      30.19F
BROWNWOOD      CLOUDY    57  57 100 E3        30.19S FOG
COLEMAN        CLOUDY    57  53  84 N5        30.20S
$$

TXZ143>147-156>162-174-175-181000-
CENTRAL TEXAS

CITY           SKY/WX    TMP DP  RH WIND       PRES   REMARKS
WACO           LGT RAIN  58  56  93 CALM      30.17S FOG
WACO-MCGREGOR  MOCLDY    57  52  82 NW3       30.19S
HILLSBORO      MOCLDY    58  51  76 NE9       30.18S
CORSICANA      CLOUDY    59  52  77 N6        30.18R
MEXIA          CLOUDY    57  53  85 CALM      30.16S
HEARNE         CLOUDY    61  58  92 W3        30.16S
CAMERON        CLOUDY    61  59  94 CALM      30.16S
TEMPLE         CLOUDY    57  54  88 N3        30.20S
KILLEEN        NOT AVBL
KILLEEN-SKYLRK PTCLDY    57  54  88 CALM      30.17S
GATESVILLE     CLOUDY    57  55  94 CALM      30.20S
HAMILTON       CLOUDY    56  56 100 CALM      30.19F
LAMPASAS       CLOUDY    58  57  96 N5        30.17S FOG
$$

TXZ095>097-106>112-122>126-135>138-148>153-164>167-181000-
EAST TEXAS

CITY           SKY/WX    TMP DP  RH WIND       PRES   REMARKS
PARIS          FAIR      52  45  76 N7        30.20R
SULPHUR SPRNGS CLEAR     54  50  85 CALM      30.20S
CLARKSVILLE    CLEAR     53  46  78 CALM      30.19S
MOUNT PLEASANT CLEAR     51  47  86 CALM      30.20S
MINEOLA        CLOUDY    55  52  88 CALM      30.19S
TYLER          CLOUDY    56  50  80 CALM      30.17S
LONGVIEW       CLOUDY    55  51  86 CALM      30.17R
MARSHALL       MOCLDY    53  50  89 CALM      30.19R
ATHENS         PTCLDY    52  50  93 CALM      30.17R
PALESTINE      CLOUDY    56  50  79 CALM      30.18S
JACKSONVILLE   CLOUDY    55  48  76 CALM      30.18R
HENDERSON      MOCLDY    55  50  84 CALM      30.18R
NACOGDOCHES    CLOUDY    54  50  87 CALM      30.16S
LUFKIN         CLOUDY    58  52  80 NW3       30.15S
$$

SUPPLEMENTAL OBSERVATIONS (CENTRAL)

CITY           SKY/WX    TMP DP  RH WIND       PRES   REMARKS
$$

SUPPLEMENTAL OBSERVATIONS (WEST)

CITY           SKY/WX    TMP DP  RH WIND       PRES   REMARKS
$$

SUPPLEMENTAL OBSERVATIONS (EAST)

CITY           SKY/WX    TMP DP  RH WIND       PRES   REMARKS
$$

SUPPLEMENTAL OBSERVATIONS ARE A COLLECTION OF AUTOMATED INSTRUMENTS
THAT ARE MAINTAINED BY A VARIETY OF FEDERAL AND STATE AGENCIES.
CERTAIN ELEMENTS...SUCH AS HUMIDITY VALUES AND SUSTAINED WIND
SPEEDS...MAY BE APPROXIMATED.




USA.gov is the U.S. government's official web portal to all federal, state and local government web resources and services.